Tracking 30995 objects as of 5-Jul-2025
HD Live streaming from Space Station
objects crossing your sky now

STARLINK-32326

Track STARLINK-32326 now!
10-day predictions
STARLINK-32326 is classified as:


NORAD ID: 61674
Int'l Code: 2024-193P
Perigee: 481.6 km
Apogee: 483.2 km
Inclination: 53.2 °
Period: 94.1 minutes
Semi major axis: 6853 km
RCS: Unknown
Launch date: October 26, 2024
Source: United States (US)
Launch site: AIR FORCE EASTERN TEST RANGE (AFETR)
Your satellite tracking list
Your tracking list is empty




NASA's NSSDC Master Catalog

Two Line Element Set (TLE):
1 61674U 24193P   25186.30581370 -.00000807  00000-0 -15134-4 0  9997
2 61674  53.1605 159.8939 0001226  95.4277 264.6864 15.30183917 38651
Source of the keplerian elements: AFSPC